contact:dominique.lefevre@mio.osupytheas.fr, maurice.libes@osupytheas.fr, didier.mallarino@osupytheas.fr
Project:EMSO http://www.emso-fr.org/EMSO-France
Depth: 2436.0 m
Title:EMSO Ligure Ouest : Data MII capteur AQUADOPP
Date,Latitude,Longitude,X_East,Y_North,Z_Up,Amplitude_X,Amplitude_Y,Amplitude_Z,Batterie,SoundSpeed,Heading,Pitch,Roll,Pressure,TIS,Speed,Direction
, degrees North, degrees East, m.s-1, m.s-1,m.s-1, 1, 1, 1, Volt, m.s-1, degree, degree, degree, dbar, degree_C, m.s-1, degree
2019-12-02T00:04:03,42.805,6.029,-0.022,0.028,-0.043,104.0,114.0,101.0,13.3,1505.3,326.7,-0.8,1.8,2470.305,13.31,0.035,321.8
2019-12-02T00:07:03,42.805,6.029,-0.023,0.029,-0.028,101.0,113.0,100.0,13.4,1505.3,328.3,-0.7,1.8,2470.288,13.32,0.037,321.6
2019-12-02T00:10:03,42.805,6.029,-0.024,0.041,-0.04,103.0,111.0,101.0,13.4,1505.3,323.8,-0.7,1.8,2470.257,13.33,0.047,329.7
2019-12-02T00:13:03,42.805,6.029,-0.023,0.043,-0.015,102.0,115.0,101.0,13.4,1505.3,326.0,-0.7,1.8,2470.293,13.33,0.048,331.9
2019-12-02T00:16:03,42.805,6.029,-0.036,0.036,0.001,104.0,112.0,100.0,13.4,1505.3,324.4,-0.7,1.9,2470.281,13.33,0.05,315.0
2019-12-02T00:19:03,42.805,6.029,-0.053,0.03,-0.014,102.0,111.0,100.0,13.4,1505.3,325.2,-0.7,1.8,2470.332,13.33,0.06,299.5
2019-12-02T00:22:03,42.805,6.029,-0.014,0.031,-0.023,103.0,114.0,100.0,13.4,1505.3,327.4,-0.7,1.8,2470.266,13.33,0.034,335.7
2019-12-02T00:25:03,42.805,6.029,0.003,0.019,-0.011,105.0,114.0,101.0,13.4,1505.3,326.2,-0.7,1.8,2470.289,13.33,0.019,9.0
2019-12-02T00:28:03,42.805,6.029,-0.004,0.036,-0.017,103.0,112.0,101.0,13.3,1505.3,326.4,-0.7,1.8,2470.268,13.33,0.036,353.7
2019-12-02T00:31:03,42.805,6.029,-0.015,0.021,-0.028,104.0,115.0,100.0,13.4,1505.3,323.8,-0.7,1.9,2470.273,13.33,0.025,324.5
2019-12-02T00:34:03,42.805,6.029,-0.008,0.035,-0.007,103.0,114.0,100.0,13.4,1505.3,323.8,-0.7,1.9,2470.247,13.33,0.035,347.1
2019-12-02T00:37:03,42.805,6.029,-0.034,0.029,-0.055,103.0,114.0,100.0,13.4,1505.3,327.2,-0.7,1.8,2470.265,13.33,0.044,310.5
2019-12-02T00:40:03,42.805,6.029,-0.002,0.028,-0.053,102.0,114.0,99.0,13.4,1505.3,328.4,-0.7,1.9,2470.282,13.33,0.028,355.9
2019-12-02T00:43:03,42.805,6.029,-0.035,0.032,-0.002,103.0,113.0,100.0,13.3,1505.3,323.6,-0.7,1.8,2470.244,13.33,0.047,312.4
2019-12-02T00:46:03,42.805,6.029,-0.043,0.008,-0.015,103.0,111.0,100.0,13.3,1505.3,327.0,-0.7,1.8,2470.225,13.33,0.043,280.5
2019-12-02T00:49:03,42.805,6.029,-0.018,0.016,-0.032,103.0,112.0,100.0,13.4,1505.3,326.6,-0.7,1.8,2470.226,13.33,0.024,311.6
2019-12-02T00:52:03,42.805,6.029,-0.02,0.035,-0.015,102.0,112.0,101.0,13.4,1505.3,328.1,-0.7,1.8,2470.226,13.33,0.04,330.3
2019-12-02T00:55:03,42.805,6.029,-0.023,0.019,-0.026,103.0,112.0,100.0,13.4,1505.3,322.9,-0.7,1.8,2470.254,13.33,0.029,309.6
2019-12-02T00:58:03,42.805,6.029,-0.009,0.047,0.02,103.0,114.0,100.0,13.3,1505.3,326.1,-0.7,1.8,2470.24,13.33,0.047,349.2
2019-12-02T01:04:03,42.805,6.029,-0.015,0.03,0.004,102.0,110.0,101.0,13.4,1505.3,326.4,-0.7,1.8,2470.297,13.31,0.033,333.4
2019-12-02T01:07:04,42.805,6.029,-0.043,0.019,-0.021,104.0,111.0,100.0,13.3,1505.3,326.7,-0.7,1.8,2470.229,13.32,0.047,293.8
2019-12-02T01:10:03,42.805,6.029,-0.025,0.027,-0.071,103.0,113.0,100.0,13.3,1505.3,325.2,-0.7,1.8,2470.277,13.32,0.036,317.2
2019-12-02T01:13:03,42.805,6.029,-0.03,0.028,-0.026,102.0,111.0,101.0,13.3,1505.3,323.8,-0.7,1.8,2470.222,13.33,0.041,313.0
2019-12-02T01:16:03,42.805,6.029,-0.03,0.046,-0.01,103.0,111.0,101.0,13.3,1505.3,324.8,-0.7,1.8,2470.258,13.33,0.054,326.9
2019-12-02T01:19:03,42.805,6.029,-0.006,0.032,-0.02,105.0,110.0,101.0,13.3,1505.3,328.2,-0.7,1.8,2470.286,13.33,0.032,349.4
2019-12-02T01:22:03,42.805,6.029,-0.028,0.048,0.011,103.0,114.0,101.0,13.4,1505.3,326.9,-0.7,1.8,2470.258,13.33,0.055,329.7
2019-12-02T01:25:03,42.805,6.029,-0.016,0.044,-0.026,104.0,113.0,101.0,13.3,1505.3,323.7,-0.7,1.8,2470.221,13.33,0.046,340.0
2019-12-02T01:28:03,42.805,6.029,-0.022,0.029,-0.015,103.0,113.0,100.0,13.4,1505.3,323.3,-0.7,1.8,2470.247,13.33,0.036,322.8
2019-12-02T01:31:03,42.805,6.029,-0.036,0.042,-0.055,104.0,111.0,100.0,13.4,1505.3,325.7,-0.7,1.8,2470.249,13.33,0.055,319.4
2019-12-02T01:34:03,42.805,6.029,-0.053,0.031,-0.047,104.0,113.0,100.0,13.3,1505.3,326.0,-0.7,1.9,2470.235,13.33,0.061,300.3
2019-12-02T01:37:03,42.805,6.029,-0.004,0.015,-0.012,104.0,112.0,100.0,13.3,1505.3,327.8,-0.7,1.9,2470.238,13.33,0.015,345.1
2019-12-02T01:40:03,42.805,6.029,-0.034,0.057,-0.018,101.0,113.0,101.0,13.4,1505.3,323.2,-0.7,1.8,2470.2,13.33,0.066,329.2
2019-12-02T01:43:03,42.805,6.029,-0.027,0.026,-0.03,103.0,116.0,101.0,13.3,1505.3,324.1,-0.7,1.8,2470.256,13.33,0.037,313.9
2019-12-02T01:46:03,42.805,6.029,-0.006,0.02,-0.012,104.0,114.0,101.0,13.3,1505.3,327.2,-0.7,1.8,2470.253,13.33,0.02,343.3
2019-12-02T01:49:03,42.805,6.029,0.009,0.047,-0.025,103.0,111.0,101.0,13.3,1505.3,325.1,-0.7,1.9,2470.251,13.33,0.047,10.8
2019-12-02T01:52:03,42.805,6.029,-0.023,0.043,-0.03,105.0,114.0,102.0,13.4,1505.3,324.7,-0.8,1.9,2470.225,13.33,0.048,331.9
2019-12-02T01:58:03,42.805,6.029,-0.034,0.04,-0.025,102.0,119.0,99.0,13.4,1505.3,323.2,-0.8,1.8,2470.28,13.31,0.052,319.6
2019-12-02T02:01:03,42.805,6.029,-0.023,0.036,-0.064,101.0,113.0,100.0,13.4,1505.3,323.2,-0.7,1.8,2470.256,13.32,0.042,327.4
2019-12-02T02:04:03,42.805,6.029,-0.029,0.01,-0.037,103.0,113.0,100.0,13.4,1505.3,325.8,-0.8,1.8,2470.24,13.32,0.03,289.0
2019-12-02T02:07:03,42.805,6.029,-0.032,0.037,-0.018,102.0,114.0,99.0,13.4,1505.3,326.5,-0.7,1.8,2470.238,13.33,0.048,319.1
2019-12-02T02:10:03,42.805,6.029,-0.023,0.037,-0.023,104.0,110.0,100.0,13.4,1505.3,322.7,-0.7,1.8,2470.23,13.33,0.043,328.1
2019-12-02T02:13:03,42.805,6.029,-0.018,0.059,-0.026,103.0,113.0,101.0,13.4,1505.3,327.2,-0.7,1.8,2470.232,13.33,0.061,343.0
2019-12-02T02:16:03,42.805,6.029,-0.003,0.057,0.0,102.0,113.0,99.0,13.4,1505.3,326.3,-0.7,1.8,2470.254,13.33,0.057,357.0
2019-12-02T02:19:03,42.805,6.029,0.003,0.029,-0.027,103.0,113.0,100.0,13.4,1505.3,324.8,-0.7,1.8,2470.278,13.33,0.029,5.9
2019-12-02T02:22:03,42.805,6.029,-0.022,0.044,-0.014,103.0,117.0,100.0,13.4,1505.3,323.9,-0.7,1.8,2470.242,13.33,0.049,333.4
2019-12-02T02:25:03,42.805,6.029,-0.008,0.04,-0.039,104.0,111.0,100.0,13.4,1505.3,327.4,-0.7,1.8,2470.22,13.33,0.04,348.7
2019-12-02T02:28:03,42.805,6.029,-0.012,0.013,-0.011,103.0,111.0,100.0,13.4,1505.3,328.0,-0.7,1.8,2470.241,13.33,0.017,317.3
2019-12-02T02:31:03,42.805,6.029,-0.026,0.023,-0.04,102.0,111.0,100.0,13.3,1505.3,326.8,-0.8,1.8,2470.255,13.33,0.034,311.5
2019-12-02T02:34:03,42.805,6.029,-0.03,0.033,-0.009,100.0,111.0,101.0,13.4,1505.3,328.1,-0.7,1.8,2470.185,13.33,0.044,317.7
2019-12-02T02:37:03,42.805,6.029,0.004,0.029,0.001,102.0,112.0,100.0,13.4,1505.3,323.5,-0.7,1.8,2470.23,13.33,0.029,7.8
2019-12-02T02:40:03,42.805,6.029,-0.018,0.018,0.009,103.0,112.0,101.0,13.4,1505.3,324.7,-0.7,1.9,2470.241,13.33,0.025,315.0
2019-12-02T02:43:03,42.805,6.029,0.004,0.001,-0.025,103.0,110.0,100.0,13.3,1505.3,324.0,-0.7,1.8,2470.212,13.33,0.004,76.0
2019-12-02T02:46:03,42.805,6.029,-0.008,0.025,0.016,103.0,115.0,100.0,13.4,1505.3,326.6,-0.7,1.9,2470.172,13.33,0.026,342.3
2019-12-02T02:49:03,42.805,6.029,-0.02,0.005,-0.03,103.0,113.0,101.0,13.3,1505.3,325.5,-0.7,1.8,2470.211,13.33,0.02,284.0
2019-12-02T02:52:03,42.805,6.029,-0.024,0.04,0.005,103.0,112.0,100.0,13.4,1505.3,327.3,-0.7,1.8,2470.184,13.33,0.046,329.0
2019-12-02T02:55:03,42.805,6.029,-0.013,0.048,-0.01,102.0,112.0,100.0,13.3,1505.3,325.0,-0.7,1.8,2470.215,13.33,0.049,344.8
2019-12-02T02:58:03,42.805,6.029,-0.048,0.037,-0.05,103.0,113.0,99.0,13.4,1505.3,324.9,-0.7,1.8,2470.198,13.33,0.06,307.6
2019-12-02T03:01:03,42.805,6.029,-0.026,0.017,-0.037,104.0,112.0,99.0,13.3,1505.3,327.2,-0.7,1.8,2470.249,13.33,0.031,303.2
2019-12-02T03:04:03,42.805,6.029,-0.039,0.023,-0.042,103.0,115.0,99.0,13.4,1505.3,325.4,-0.7,1.8,2470.244,13.33,0.045,300.5
2019-12-02T03:07:03,42.805,6.029,-0.019,0.037,-0.042,102.0,112.0,100.0,13.4,1505.3,326.4,-0.7,1.8,2470.235,13.33,0.041,332.8
2019-12-02T03:10:03,42.805,6.029,-0.031,0.036,0.006,103.0,120.0,99.0,13.3,1505.3,328.2,-0.7,1.8,2470.22,13.33,0.047,319.3
2019-12-02T03:13:03,42.805,6.029,-0.015,0.022,-0.009,103.0,113.0,100.0,13.4,1505.3,324.4,-0.7,1.8,2470.2,13.33,0.026,325.7
2019-12-02T03:16:03,42.805,6.029,-0.006,0.038,-0.021,103.0,113.0,99.0,13.4,1505.3,323.5,-0.7,1.8,2470.265,13.33,0.038,351.0
2019-12-02T03:19:03,42.805,6.029,-0.019,0.032,-0.043,103.0,114.0,99.0,13.4,1505.3,324.3,-0.7,1.8,2470.193,13.33,0.037,329.3
2019-12-02T03:22:03,42.805,6.029,-0.008,0.028,-0.033,104.0,111.0,99.0,13.4,1505.3,327.0,-0.7,1.8,2470.237,13.33,0.029,344.1
2019-12-02T03:25:03,42.805,6.029,0.017,0.05,-0.033,101.0,111.0,100.0,13.4,1505.3,324.2,-0.7,1.8,2470.234,13.33,0.052,18.8
2019-12-02T03:28:03,42.805,6.029,-0.003,0.037,-0.015,102.0,113.0,100.0,13.3,1505.3,326.0,-0.7,1.9,2470.174,13.33,0.037,355.4
2019-12-02T03:31:03,42.805,6.029,-0.017,0.022,-0.044,103.0,111.0,99.0,13.3,1505.3,323.6,-0.7,1.8,2470.23,13.33,0.027,322.3
2019-12-02T03:34:03,42.805,6.029,-0.041,0.029,-0.008,103.0,112.0,100.0,13.4,1505.3,325.5,-0.7,1.8,2470.183,13.33,0.05,305.3
2019-12-02T03:37:03,42.805,6.029,-0.015,0.019,-0.015,102.0,110.0,101.0,13.3,1505.3,325.3,-0.7,1.8,2470.201,13.33,0.024,321.7
2019-12-02T03:40:03,42.805,6.029,-0.03,0.042,-0.026,102.0,131.0,100.0,13.4,1505.3,328.2,-0.7,1.8,2470.239,13.33,0.051,324.5
2019-12-02T03:43:03,42.805,6.029,-0.01,0.044,-0.036,104.0,114.0,101.0,13.4,1505.3,326.2,-0.7,1.8,2470.179,13.33,0.045,347.2
2019-12-02T03:46:03,42.805,6.029,-0.007,0.024,-0.027,102.0,113.0,100.0,13.4,1505.3,327.3,-0.7,1.8,2470.187,13.33,0.025,343.7
2019-12-02T03:49:03,42.805,6.029,-0.011,0.04,-0.035,103.0,113.0,99.0,13.4,1505.3,323.3,-0.7,1.8,2470.274,13.33,0.041,344.6
2019-12-02T03:52:03,42.805,6.029,-0.02,0.002,-0.02,104.0,110.0,100.0,13.3,1505.3,326.4,-0.7,1.8,2470.195,13.33,0.02,275.7
2019-12-02T03:55:03,42.805,6.029,-0.014,0.038,-0.009,103.0,111.0,100.0,13.4,1505.3,324.2,-0.7,1.8,2470.203,13.33,0.04,339.8
2019-12-02T03:58:03,42.805,6.029,-0.015,0.014,-0.018,104.0,111.0,99.0,13.3,1505.3,323.7,-0.7,1.8,2470.227,13.33,0.02,313.0
2019-12-02T04:04:03,42.805,6.029,-0.004,0.028,-0.015,102.0,113.0,100.0,13.4,1505.3,326.5,-0.7,1.8,2470.217,13.31,0.028,351.9
2019-12-02T04:07:03,42.805,6.029,-0.003,0.045,0.005,102.0,112.0,100.0,13.3,1505.3,325.8,-0.7,1.8,2470.225,13.32,0.045,356.2
2019-12-02T04:10:03,42.805,6.029,-0.017,0.024,-0.043,102.0,113.0,100.0,13.3,1505.3,326.9,-0.7,1.9,2470.201,13.32,0.029,324.7
2019-12-02T04:13:03,42.805,6.029,-0.007,0.039,-0.015,101.0,111.0,100.0,13.3,1505.3,326.0,-0.7,1.8,2470.216,13.33,0.039,349.8
2019-12-02T04:16:03,42.805,6.029,-0.004,0.031,-0.002,103.0,111.0,100.0,13.4,1505.3,326.6,-0.7,1.9,2470.179,13.33,0.031,352.7
2019-12-02T04:19:03,42.805,6.029,0.009,0.022,-0.025,102.0,111.0,98.0,13.4,1505.3,323.4,-0.7,1.8,2470.23,13.33,0.023,22.2
2019-12-02T04:22:03,42.805,6.029,-0.028,0.042,-0.026,102.0,115.0,100.0,13.3,1505.3,324.7,-0.7,1.8,2470.202,13.33,0.05,326.3
2019-12-02T04:25:03,42.805,6.029,-0.016,0.029,-0.018,103.0,110.0,100.0,13.4,1505.3,327.1,-0.7,1.8,2470.212,13.33,0.033,331.1
2019-12-02T04:28:03,42.805,6.029,-0.023,0.038,-0.046,102.0,113.0,99.0,13.3,1505.3,323.8,-0.7,1.8,2470.252,13.33,0.044,328.8
2019-12-02T04:31:03,42.805,6.029,0.0,0.023,-0.002,101.0,112.0,99.0,13.4,1505.3,325.3,-0.7,1.8,2470.233,13.33,0.023,0.0
2019-12-02T04:34:03,42.805,6.029,-0.017,0.031,-0.025,103.0,113.0,99.0,13.4,1505.3,324.3,-0.7,1.9,2470.202,13.33,0.035,331.3
2019-12-02T04:37:03,42.805,6.029,-0.011,0.048,-0.033,103.0,113.0,99.0,13.4,1505.3,324.7,-0.7,1.9,2470.189,13.33,0.049,347.1
2019-12-02T04:40:03,42.805,6.029,-0.027,0.031,-0.007,102.0,111.0,100.0,13.4,1505.3,326.5,-0.7,1.9,2470.23,13.33,0.041,318.9
2019-12-02T04:46:03,42.805,6.029,-0.036,0.025,-0.048,103.0,113.0,99.0,13.3,1505.3,325.3,-0.8,1.8,2470.295,13.31,0.043,304.8
2019-12-02T04:49:03,42.805,6.029,-0.024,0.038,-0.042,102.0,111.0,99.0,13.4,1505.3,323.9,-0.7,1.8,2470.259,13.32,0.044,327.7
2019-12-02T04:52:03,42.805,6.029,-0.028,0.006,-0.026,103.0,111.0,100.0,13.4,1505.3,326.7,-0.7,1.8,2470.195,13.32,0.028,282.1
2019-12-02T04:55:03,42.805,6.029,-0.003,0.03,-0.003,104.0,113.0,100.0,13.4,1505.3,326.6,-0.7,1.8,2470.244,13.33,0.03,354.3
2019-12-02T04:58:03,42.805,6.029,-0.027,0.035,-0.025,102.0,111.0,99.0,13.4,1505.3,323.2,-0.7,1.8,2470.213,13.33,0.044,322.3
2019-12-02T05:04:03,42.805,6.029,-0.034,0.027,-0.04,104.0,114.0,100.0,13.3,1505.3,324.8,-0.7,1.8,2470.207,13.31,0.043,308.5
2019-12-02T05:07:03,42.805,6.029,-0.01,0.037,-0.016,103.0,114.0,101.0,13.3,1505.3,325.0,-0.7,1.8,2470.244,13.32,0.038,344.9
2019-12-02T05:10:03,42.805,6.029,-0.019,0.012,-0.03,102.0,111.0,100.0,13.4,1505.3,328.3,-0.7,1.8,2470.258,13.32,0.022,302.3
2019-12-02T05:13:03,42.805,6.029,-0.002,0.038,0.004,103.0,112.0,100.0,13.3,1505.3,325.0,-0.7,1.8,2470.208,13.33,0.038,357.0
2019-12-02T05:16:03,42.805,6.029,-0.015,0.025,-0.021,103.0,112.0,101.0,13.4,1505.3,327.3,-0.7,1.8,2470.197,13.33,0.029,329.0
2019-12-02T05:19:03,42.805,6.029,-0.022,0.027,-0.044,105.0,113.0,100.0,13.3,1505.3,324.7,-0.7,1.9,2470.215,13.33,0.034,320.8
2019-12-02T05:22:03,42.805,6.029,-0.009,0.037,-0.008,102.0,114.0,99.0,13.3,1505.3,328.5,-0.7,1.8,2470.275,13.33,0.038,346.3
2019-12-02T05:25:03,42.805,6.029,-0.029,0.028,-0.026,103.0,114.0,100.0,13.3,1505.3,327.8,-0.7,1.8,2470.208,13.33,0.04,314.0
2019-12-02T05:28:03,42.805,6.029,-0.029,0.022,-0.061,102.0,111.0,100.0,13.4,1505.3,325.9,-0.7,1.9,2470.2,13.33,0.036,307.2
2019-12-02T05:31:03,42.805,6.029,-0.022,0.034,-0.02,103.0,112.0,99.0,13.4,1505.3,328.2,-0.7,1.9,2470.204,13.33,0.04,327.1
2019-12-02T05:34:03,42.805,6.029,-0.018,0.029,-0.02,103.0,112.0,100.0,13.4,1505.3,326.4,-0.7,1.8,2470.227,13.33,0.034,328.2
2019-12-02T05:37:03,42.805,6.029,-0.034,0.051,-0.016,103.0,113.0,99.0,13.4,1505.3,325.5,-0.7,1.8,2470.249,13.33,0.061,326.3
2019-12-02T05:40:03,42.805,6.029,-0.037,0.035,-0.015,103.0,112.0,101.0,13.4,1505.3,325.3,-0.7,1.8,2470.22,13.33,0.05,313.4
2019-12-02T05:43:03,42.805,6.029,-0.007,0.051,-0.034,102.0,112.0,100.0,13.4,1505.3,326.2,-0.7,1.8,2470.193,13.33,0.051,352.2
2019-12-02T05:46:03,42.805,6.029,-0.016,0.042,-0.02,103.0,110.0,101.0,13.3,1505.3,326.6,-0.7,1.8,2470.228,13.33,0.044,339.1
2019-12-02T05:49:03,42.805,6.029,-0.012,0.021,-0.052,103.0,109.0,100.0,13.4,1505.3,324.7,-0.7,1.8,2470.193,13.33,0.024,330.3
2019-12-02T05:52:03,42.805,6.029,-0.039,0.057,-0.022,103.0,113.0,100.0,13.4,1505.3,324.0,-0.7,1.8,2470.209,13.33,0.069,325.6
2019-12-02T05:55:03,42.805,6.029,0.0,0.038,-0.01,104.0,111.0,100.0,13.3,1505.3,324.2,-0.7,1.8,2470.235,13.33,0.038,0.0
2019-12-02T05:58:03,42.805,6.029,-0.019,0.042,-0.044,102.0,111.0,100.0,13.4,1505.3,327.2,-0.7,1.8,2470.248,13.33,0.046,335.7
2019-12-02T06:04:03,42.805,6.029,-0.001,0.025,-0.007,103.0,112.0,99.0,13.4,1505.3,325.4,-0.8,1.9,2470.277,13.31,0.025,357.7
2019-12-02T06:07:03,42.805,6.029,-0.01,0.026,-0.035,103.0,113.0,100.0,13.4,1505.3,323.3,-0.7,1.8,2470.262,13.32,0.027,339.0
2019-12-02T06:10:03,42.805,6.029,-0.003,0.038,-0.015,103.0,113.0,101.0,13.3,1505.3,324.8,-0.7,1.8,2470.251,13.32,0.038,355.5
2019-12-02T06:13:03,42.805,6.029,0.008,0.057,0.007,103.0,113.0,100.0,13.4,1505.3,324.2,-0.7,1.9,2470.242,13.33,0.057,8.0
2019-12-02T06:16:03,42.805,6.029,0.002,0.023,-0.033,104.0,111.0,100.0,13.3,1505.3,326.5,-0.7,1.8,2470.213,13.33,0.023,5.0
2019-12-02T06:19:03,42.805,6.029,-0.034,0.033,-0.046,103.0,112.0,100.0,13.3,1505.3,323.6,-0.7,1.8,2470.253,13.33,0.047,314.1
2019-12-02T06:22:03,42.805,6.029,-0.031,0.033,-0.037,102.0,110.0,99.0,13.4,1505.3,325.8,-0.7,1.8,2470.256,13.33,0.045,316.8
2019-12-02T06:25:03,42.805,6.029,-0.02,0.03,-0.039,101.0,112.0,101.0,13.4,1505.3,328.0,-0.7,1.8,2470.242,13.33,0.036,326.3
2019-12-02T06:28:03,42.805,6.029,-0.047,0.025,-0.031,102.0,114.0,99.0,13.4,1505.3,326.0,-0.7,1.8,2470.234,13.33,0.053,298.0
2019-12-02T06:31:03,42.805,6.029,-0.019,0.03,-0.056,102.0,112.0,100.0,13.4,1505.3,324.9,-0.7,1.8,2470.246,13.33,0.035,327.7
2019-12-02T06:34:03,42.805,6.029,-0.016,0.019,-0.008,102.0,110.0,101.0,13.3,1505.3,326.9,-0.7,1.8,2470.219,13.33,0.024,319.9
2019-12-02T06:37:03,42.805,6.029,-0.013,0.031,-0.021,103.0,110.0,100.0,13.4,1505.3,324.9,-0.7,1.8,2470.223,13.33,0.033,337.3
2019-12-02T06:40:03,42.805,6.029,-0.033,0.024,-0.041,105.0,112.0,100.0,13.4,1505.3,325.1,-0.7,1.8,2470.273,13.33,0.04,306.0
2019-12-02T06:43:03,42.805,6.029,-0.013,0.04,-0.044,104.0,112.0,99.0,13.3,1505.3,327.7,-0.7,1.9,2470.215,13.33,0.042,342.0
2019-12-02T06:46:03,42.805,6.029,-0.02,0.038,-0.032,103.0,113.0,100.0,13.3,1505.3,326.4,-0.7,1.8,2470.236,13.33,0.042,332.2
2019-12-02T06:49:03,42.805,6.029,-0.032,0.042,-0.028,103.0,110.0,100.0,13.4,1505.3,324.5,-0.7,1.9,2470.217,13.33,0.052,322.7
2019-12-02T06:52:03,42.805,6.029,-0.005,0.038,-0.003,103.0,112.0,100.0,13.4,1505.3,324.0,-0.7,1.8,2470.255,13.33,0.038,352.5
2019-12-02T06:55:03,42.805,6.029,-0.013,0.033,-0.04,104.0,114.0,99.0,13.3,1505.3,325.1,-0.7,1.8,2470.266,13.33,0.035,338.5
2019-12-02T06:58:03,42.805,6.029,-0.033,0.024,-0.042,101.0,110.0,100.0,13.4,1505.3,325.0,-0.7,1.9,2470.271,13.33,0.04,306.0
2019-12-02T07:04:03,42.805,6.029,-0.026,0.017,-0.042,102.0,113.0,100.0,13.3,1505.3,323.9,-0.8,1.8,2470.28,13.31,0.031,303.2
2019-12-02T07:07:03,42.805,6.029,-0.026,0.039,-0.005,101.0,112.0,100.0,13.4,1505.3,324.5,-0.7,1.8,2470.268,13.32,0.046,326.3
2019-12-02T07:10:03,42.805,6.029,-0.004,0.044,-0.015,103.0,111.0,99.0,13.3,1505.3,326.4,-0.7,1.8,2470.279,13.32,0.044,354.8
2019-12-02T07:13:03,42.805,6.029,-0.003,0.028,-0.031,103.0,114.0,99.0,13.4,1505.3,326.6,-0.7,1.8,2470.27,13.33,0.028,353.9
2019-12-02T07:16:03,42.805,6.029,-0.019,0.031,-0.031,104.0,112.0,100.0,13.4,1505.3,326.8,-0.7,1.9,2470.283,13.33,0.036,328.5
2019-12-02T07:19:03,42.805,6.029,-0.032,0.032,-0.024,102.0,112.0,100.0,13.4,1505.3,326.9,-0.7,1.8,2470.276,13.33,0.045,315.0
2019-12-02T07:22:03,42.805,6.029,-0.019,0.026,0.007,105.0,111.0,100.0,13.4,1505.3,326.8,-0.7,1.8,2470.259,13.33,0.032,323.8
2019-12-02T07:25:03,42.805,6.029,-0.028,0.039,0.0,102.0,112.0,100.0,13.4,1505.3,322.8,-0.7,1.8,2470.296,13.33,0.048,324.3
2019-12-02T07:28:03,42.805,6.029,-0.043,0.023,-0.046,104.0,110.0,100.0,13.4,1505.3,324.3,-0.7,1.9,2470.251,13.33,0.048,298.1
2019-12-02T07:31:03,42.805,6.029,-0.02,0.02,-0.038,102.0,111.0,100.0,13.4,1505.3,327.0,-0.7,1.8,2470.287,13.33,0.028,315.0
2019-12-02T07:34:03,42.805,6.029,-0.011,0.032,-0.015,104.0,113.0,100.0,13.4,1505.3,324.5,-0.7,1.8,2470.278,13.33,0.033,341.0
2019-12-02T07:37:03,42.805,6.029,-0.003,0.045,-0.022,102.0,110.0,100.0,13.4,1505.3,325.6,-0.7,1.8,2470.256,13.33,0.045,356.2
2019-12-02T07:40:03,42.805,6.029,-0.005,0.037,0.007,101.0,111.0,100.0,13.4,1505.3,325.7,-0.7,1.9,2470.28,13.33,0.037,352.3
2019-12-02T07:43:03,42.805,6.029,-0.009,0.03,-0.019,103.0,111.0,99.0,13.4,1505.3,325.0,-0.7,1.8,2470.295,13.33,0.031,343.3
2019-12-02T07:46:03,42.805,6.029,-0.028,0.048,-0.042,102.0,112.0,100.0,13.4,1505.3,324.9,-0.7,1.8,2470.303,13.33,0.055,329.7
2019-12-02T07:49:03,42.805,6.029,-0.009,0.037,-0.024,101.0,110.0,100.0,13.4,1505.3,327.1,-0.7,1.9,2470.3,13.33,0.038,346.3
2019-12-02T07:52:03,42.805,6.029,-0.04,0.039,-0.039,102.0,112.0,99.0,13.4,1505.3,324.5,-0.7,1.8,2470.25,13.33,0.055,314.3
2019-12-02T07:55:03,42.805,6.029,0.004,0.042,-0.022,102.0,112.0,98.0,13.3,1505.3,325.5,-0.7,1.8,2470.299,13.33,0.042,5.4
2019-12-02T07:58:03,42.805,6.029,0.0,0.026,0.018,101.0,110.0,100.0,13.3,1505.3,325.5,-0.7,1.8,2470.26,13.33,0.026,0.0
2019-12-02T08:04:03,42.805,6.029,-0.025,0.048,-0.028,102.0,111.0,99.0,13.4,1505.3,325.3,-0.7,1.8,2470.357,13.31,0.054,332.5
2019-12-02T08:07:03,42.805,6.029,-0.021,0.027,-0.045,100.0,113.0,99.0,13.4,1505.3,326.4,-0.7,1.9,2470.302,13.32,0.034,322.1
2019-12-02T08:10:03,42.805,6.029,-0.037,0.012,-0.047,103.0,113.0,98.0,13.4,1505.3,325.4,-0.7,1.9,2470.306,13.32,0.038,288.0
2019-12-02T08:13:03,42.805,6.029,-0.028,0.034,-0.051,103.0,111.0,100.0,13.3,1505.3,328.5,-0.8,1.9,2470.326,13.33,0.044,320.5
2019-12-02T08:16:03,42.805,6.029,-0.011,0.041,-0.014,102.0,113.0,99.0,13.4,1505.3,327.9,-0.8,1.8,2470.331,13.33,0.042,345.0
2019-12-02T08:19:03,42.805,6.029,-0.009,0.027,-0.015,104.0,112.0,101.0,13.4,1505.3,326.7,-0.7,1.8,2470.351,13.33,0.028,341.6
2019-12-02T08:22:03,42.805,6.029,-0.012,0.028,-0.002,103.0,113.0,99.0,13.4,1505.3,324.4,-0.7,1.8,2470.334,13.33,0.03,336.8
2019-12-02T08:25:03,42.805,6.029,-0.009,0.028,-0.04,105.0,111.0,101.0,13.4,1505.3,325.2,-0.7,1.8,2470.304,13.33,0.029,342.2
2019-12-02T08:28:03,42.805,6.029,-0.02,0.035,-0.023,103.0,113.0,98.0,13.4,1505.3,327.0,-0.7,1.8,2470.315,13.33,0.04,330.3
2019-12-02T08:31:03,42.805,6.029,-0.03,0.031,-0.044,102.0,113.0,99.0,13.4,1505.3,327.8,-0.7,1.9,2470.334,13.33,0.043,315.9
2019-12-02T08:34:03,42.805,6.029,-0.019,0.041,-0.036,101.0,111.0,100.0,13.4,1505.3,327.6,-0.7,1.8,2470.317,13.33,0.045,335.1
2019-12-02T08:37:03,42.805,6.029,-0.035,0.024,-0.055,104.0,112.0,99.0,13.4,1505.3,323.7,-0.7,1.8,2470.326,13.33,0.042,304.4
2019-12-02T08:40:03,42.805,6.029,-0.03,0.033,-0.018,100.0,114.0,101.0,13.4,1505.3,324.5,-0.7,1.8,2470.293,13.33,0.044,317.7
2019-12-02T08:43:03,42.805,6.029,-0.034,0.028,-0.012,101.0,110.0,100.0,13.3,1505.3,324.4,-0.7,1.8,2470.343,13.33,0.044,309.5
2019-12-02T08:46:03,42.805,6.029,-0.022,0.05,0.01,102.0,115.0,100.0,13.3,1505.3,323.0,-0.7,1.8,2470.327,13.33,0.054,336.3
2019-12-02T08:49:03,42.805,6.029,-0.014,0.056,-0.028,102.0,111.0,99.0,13.4,1505.3,324.3,-0.7,1.8,2470.304,13.33,0.057,346.0
2019-12-02T08:52:03,42.805,6.029,0.015,0.038,0.007,104.0,111.0,98.0,13.4,1505.3,326.8,-0.7,1.8,2470.366,13.33,0.04,21.5
2019-12-02T08:55:03,42.805,6.029,-0.018,0.032,0.001,102.0,114.0,98.0,13.3,1505.3,325.2,-0.7,1.8,2470.338,13.33,0.036,330.6
2019-12-02T08:58:03,42.805,6.029,-0.036,0.041,-0.031,102.0,113.0,100.0,13.3,1505.3,327.3,-0.7,1.8,2470.321,13.33,0.054,318.7
2019-12-02T09:04:03,42.805,6.029,-0.021,0.023,-0.018,102.0,114.0,99.0,13.3,1505.3,326.2,-0.7,1.8,2470.387,13.31,0.031,317.6
2019-12-02T09:07:03,42.805,6.029,-0.021,0.048,-0.008,101.0,116.0,99.0,13.4,1505.3,328.5,-0.8,1.8,2470.396,13.32,0.052,336.4
2019-12-02T09:10:03,42.805,6.029,-0.046,0.041,-0.013,101.0,111.0,99.0,13.4,1505.3,326.8,-0.7,1.8,2470.361,13.32,0.061,311.7
2019-12-02T09:13:03,42.805,6.029,-0.021,0.029,-0.063,102.0,111.0,99.0,13.4,1505.3,325.7,-0.7,1.8,2470.356,13.32,0.035,324.1
2019-12-02T09:16:03,42.805,6.029,-0.026,0.047,-0.009,102.0,112.0,100.0,13.4,1505.3,324.7,-0.7,1.8,2470.382,13.33,0.053,331.0
2019-12-02T09:19:03,42.805,6.029,-0.021,0.028,-0.042,102.0,112.0,99.0,13.3,1505.3,326.6,-0.7,1.8,2470.366,13.33,0.035,323.1
2019-12-02T09:22:03,42.805,6.029,-0.028,0.041,-0.042,101.0,112.0,98.0,13.4,1505.3,324.6,-0.7,1.8,2470.402,13.33,0.049,325.7
2019-12-02T09:25:03,42.805,6.029,-0.017,0.042,-0.025,102.0,111.0,99.0,13.4,1505.3,328.1,-0.7,1.9,2470.378,13.33,0.045,338.0
2019-12-02T09:28:03,42.805,6.029,-0.021,0.033,-0.026,101.0,114.0,99.0,13.3,1505.3,326.1,-0.7,1.8,2470.385,13.33,0.039,327.5
2019-12-02T09:31:03,42.805,6.029,-0.026,0.04,-0.004,102.0,111.0,100.0,13.4,1505.3,323.2,-0.7,1.8,2470.409,13.33,0.047,327.0
2019-12-02T09:34:03,42.805,6.029,-0.022,0.037,0.0,103.0,112.0,100.0,13.4,1505.3,325.1,-0.8,1.8,2470.368,13.33,0.043,329.3
2019-12-02T09:37:03,42.805,6.029,-0.049,0.027,-0.038,102.0,114.0,100.0,13.3,1505.3,323.4,-0.7,1.9,2470.409,13.33,0.055,298.9
2019-12-02T09:40:03,42.805,6.029,-0.043,0.055,0.011,101.0,113.0,99.0,13.4,1505.3,324.4,-0.7,1.9,2470.399,13.33,0.069,322.0
2019-12-02T09:43:03,42.805,6.029,-0.019,0.017,-0.045,101.0,112.0,100.0,13.3,1505.3,324.1,-0.7,1.8,2470.377,13.33,0.025,311.8
2019-12-02T09:46:03,42.805,6.029,-0.009,0.037,-0.031,103.0,113.0,100.0,13.4,1505.3,324.9,-0.7,1.9,2470.416,13.33,0.038,346.3
2019-12-02T09:49:03,42.805,6.029,-0.029,0.043,-0.022,102.0,111.0,99.0,13.4,1505.3,327.8,-0.7,1.9,2470.417,13.33,0.051,326.0
2019-12-02T09:52:03,42.805,6.029,-0.02,0.042,-0.009,101.0,113.0,99.0,13.4,1505.3,327.4,-0.7,1.8,2470.394,13.33,0.046,334.5
2019-12-02T09:55:03,42.805,6.029,0.001,0.052,-0.005,102.0,111.0,99.0,13.4,1505.3,328.5,-0.7,1.8,2470.427,13.33,0.052,1.1